Sant Sadurní d´Osormort





Hora UTC 19:45
Temperatura 3.4 ºC
Humitat 89.0 %
Pressió 1023.6 hPa
Pluja 0.0 mm
Velocitat vent 0.0 km/h
Direcció vent NW

Dades diàries 2020-01-29



Hora UTC (hivern +1h; estiu +2h)
Temperatura (ºC) Humitat (%) Pressió (hPa) Velocitat vent (km/h) Precipitació (mm)
Hora UTC Aire Humitat Pressió Vel. Dir. Vel. Max Dir. Intent. màx 5 min.
00:05 -1.2 93.0 1021.1 0.0 N 0.0 0.0
00:10 -1.2 93.0 1021.2 0.0 N 0.0 0.2
00:15 -1.3 93.0 1021.1 0.0 N 0.0 0.0
00:20 -1.3 93.0 1021.1 0.0 N 0.0 0.0
00:25 -1.3 93.0 1021.1 0.0 N 0.0 0.0
00:30 -1.3 93.0 1021.1 0.0 NW 0.0 0.0
00:35 -1.4 93.0 1021.2 0.0 NW 0.0 0.0
00:40 -1.4 93.0 1021.2 0.0 NW 0.0 0.0
00:45 -1.4 93.0 1021.2 0.0 NW 0.0 0.0
00:50 -1.4 93.0 1021.1 0.0 NW 0.0 0.0
00:55 -1.4 93.0 1021.2 0.0 NW 0.0 0.0
01:00 -1.5 93.0 1021.4 0.0 NNW 0.0 0.0
01:05 -1.6 93.0 1021.4 0.0 NNW 0.0 0.0
01:10 -1.6 93.0 1021.3 0.0 NNW 0.0 0.0
01:15 -1.6 93.0 1021.2 0.0 NNW 0.0 0.0
01:20 -1.6 93.0 1021.3 0.0 NNW 0.0 0.0
01:25 -1.7 93.0 1021.3 0.0 NNW 0.0 0.0
01:30 -1.7 93.0 1021.3 0.0 NNW 0.0 0.0
01:35 -1.7 93.0 1021.3 0.0 NNW 0.0 0.0
01:40 -1.7 93.0 1021.3 0.0 NNW 0.0 0.0
01:45 -1.7 93.0 1021.3 0.0 NNW 0.0 0.0
01:50 -1.8 93.0 1021.3 0.0 NNW 0.0 0.0
01:55 -1.8 93.0 1021.5 0.0 NNW 0.0 0.0
02:00 -1.8 93.0 1021.5 0.0 NNW 0.0 0.0
02:05 -1.8 93.0 1021.4 0.0 NNW 0.0 0.0
02:10 -1.9 93.0 1021.3 0.0 NNW 0.0 0.0
02:15 -1.9 93.0 1021.5 0.0 NNW 0.0 0.0
02:20 -1.9 93.0 1021.4 0.0 NNW 0.0 0.0
02:25 -1.9 93.0 1021.4 0.0 NNW 0.0 0.0
02:30 -1.9 93.0 1021.3 0.0 NNW 0.0 0.0
02:35 -2.0 93.0 1021.2 0.0 NNW 0.0 0.0
02:40 -2.0 93.0 1021.2 0.0 NNW 0.0 0.0
02:45 -2.0 93.0 1021.1 0.0 NNW 0.0 0.0
02:50 -1.9 93.0 1021.2 0.0 NNW 0.0 0.0
02:55 -2.0 93.0 1021.2 0.0 NNW 0.0 0.0
03:00 -2.0 93.0 1021.2 0.0 NNW 0.0 0.0
03:05 -2.0 93.0 1021.2 0.0 NNW 0.0 0.0
03:10 -2.0 93.0 1021.2 0.0 NNW 0.0 0.0
03:15 -1.9 94.0 1021.2 0.0 NNW 0.0 0.0
03:20 -1.9 94.0 1021.4 0.0 NNW 0.0 0.0
03:25 -1.8 94.0 1021.3 0.0 NNW 0.0 0.0
03:30 -1.8 94.0 1021.2 0.0 NNW 0.0 0.0
03:35 -1.7 93.0 1021.1 0.0 NNW 0.0 0.0
03:40 -1.7 94.0 1021.1 0.0 NNW 0.0 0.0
03:45 -1.7 93.0 1021.2 0.0 NNW 0.0 0.0
03:50 -1.8 93.0 1021.3 0.0 NNW 0.0 0.0
03:55 -1.8 93.0 1021.2 0.0 NNW 0.0 0.0
04:00 -1.9 93.0 1021.3 0.0 NNW 0.0 0.0
04:05 -1.9 93.0 1021.3 0.0 NNW 0.0 0.0
04:10 -1.9 93.0 1021.3 0.0 NNW 0.0 0.0
04:15 -1.9 93.0 1021.4 0.0 NNW 0.0 0.0
04:20 -2.0 93.0 1021.4 0.0 NNW 0.0 0.0
04:25 -1.9 93.0 1021.4 0.0 NNW 0.0 0.0
04:30 -1.9 93.0 1021.5 0.0 NNW 0.0 0.0
04:35 -2.0 93.0 1021.4 0.0 NNW 0.0 0.0
04:40 -2.1 93.0 1021.4 0.0 NNW 0.0 0.0
04:45 -2.1 93.0 1021.5 0.0 NNW 0.0 0.0
04:50 -2.1 93.0 1021.6 0.0 NNW 0.0 0.0
04:55 -2.1 93.0 1021.5 0.0 NNW 0.0 0.0
05:00 -2.1 93.0 1021.5 0.0 NNW 0.0 0.0
05:05 -2.1 94.0 1021.5 0.0 NNW 0.0 0.0
05:10 -1.9 94.0 1021.5 0.0 NNW 0.0 0.0
05:15 -1.9 94.0 1021.6 0.0 NNW 0.0 0.0
05:20 -2.0 94.0 1021.7 0.0 NNW 0.0 0.0
05:25 -2.1 93.0 1021.8 0.0 NNW 0.0 0.0
05:30 -2.1 93.0 1021.5 0.0 NNW 0.0 0.0
05:35 -2.2 93.0 1021.6 0.0 NNW 0.0 0.0
05:40 -2.2 93.0 1021.8 0.0 NNW 0.0 0.0
05:45 -2.2 93.0 1021.8 0.0 NNW 0.0 0.0
05:50 -2.2 94.0 1021.9 0.0 NNW 0.0 0.0
05:55 -2.2 93.0 1021.9 0.0 NNW 0.0 0.0
06:00 -2.3 93.0 1021.9 0.0 NNW 0.0 0.0
06:05 -2.3 93.0 1022.0 0.0 NNW 0.0 0.0
06:10 -2.3 93.0 1022.1 0.0 NNW 0.0 0.0
06:15 -2.3 93.0 1022.0 0.0 NNW 0.0 0.0
06:20 -2.4 93.0 1022.0 0.0 NNW 0.0 0.0
06:25 -2.5 93.0 1022.0 0.0 NNW 0.0 0.0
06:30 -2.5 94.0 1022.3 0.0 NNW 0.0 0.0
06:35 -2.4 94.0 1022.4 0.0 NNW 0.0 0.0
06:40 -2.5 93.0 1022.4 0.0 NNW 0.0 0.0
06:45 -2.6 93.0 1022.4 0.0 NNW 0.0 0.0
06:50 -2.6 93.0 1022.4 0.0 NNW 0.0 0.0
06:55 -2.7 94.0 1022.5 0.0 NNW 0.0 0.0
07:00 -2.7 94.0 1022.7 0.0 NNW 0.0 0.0
07:05 -2.7 94.0 1022.6 0.0 NNW 0.0 0.0
07:10 -2.7 93.0 1022.6 0.0 NNW 0.0 0.0
07:15 -2.7 93.0 1022.6 0.0 NNW 0.0 0.0
07:20 -2.7 93.0 1022.7 0.0 NNW 0.0 0.0
07:25 -2.7 93.0 1022.8 0.0 NNW 0.0 0.0
07:30 -2.7 94.0 1023.0 0.0 NNW 0.0 0.0
07:35 -2.7 94.0 1023.0 0.0 NNW 0.0 0.0
07:40 -2.6 94.0 1023.2 0.0 NNW 0.0 0.0
07:45 -2.6 94.0 1023.2 0.0 N 0.0 0.0
07:50 -2.4 94.0 1023.2 0.0 NW 0.0 0.0
07:55 -2.3 94.0 1023.3 0.0 NW 0.0 0.0
08:00 -2.2 94.0 1023.4 0.0 N 0.0 0.0
08:05 -2.1 94.0 1023.5 0.0 N 0.0 0.0
08:10 -1.9 95.0 1023.6 0.0 NW 0.0 0.0
08:15 -1.8 94.0 1023.6 0.0 N 0.0 0.0
08:20 -1.7 95.0 1023.5 0.0 N 0.0 0.0
08:25 -1.4 95.0 1023.5 0.0 N 0.0 0.0
08:30 -1.3 95.0 1023.5 0.0 N 0.0 0.0
08:35 -1.1 95.0 1023.5 0.0 NNW 0.0 0.0
08:40 -0.9 95.0 1023.5 0.0 N 0.0 0.0
08:45 -0.8 95.0 1023.7 0.0 N 0.0 0.0
08:50 -0.7 95.0 1023.8 0.0 N 0.0 0.0
08:55 -0.6 95.0 1023.8 0.0 NNW 0.0 0.0
09:00 -0.4 95.0 1023.8 0.0 N 0.0 0.0
09:05 -0.2 95.0 1023.8 0.0 N 0.0 0.0
09:10 -0.1 95.0 1023.9 0.0 N 0.0 0.0
09:15 0.1 95.0 1023.9 0.0 NNW 0.0 0.0
09:20 0.1 95.0 1023.9 0.0 NW 0.0 0.0
09:25 0.6 95.0 1023.9 0.0 NNW 0.0 0.0
09:30 0.8 95.0 1024.0 0.0 NNW 0.0 0.0
09:35 1.1 96.0 1024.0 0.0 NNW 0.0 0.0
09:40 1.3 96.0 1024.0 0.0 NNW 0.0 0.0
09:45 1.5 96.0 1024.1 0.0 NNW 0.0 0.0
09:50 1.7 96.0 1024.1 0.0 N 0.0 0.0
09:55 1.9 96.0 1024.2 0.0 N 0.0 0.0
10:00 2.2 96.0 1024.2 0.0 N 0.0 0.0
10:05 2.4 96.0 1024.2 0.0 N 0.0 0.0
10:10 2.7 96.0 1024.2 0.0 N 0.0 0.0
10:15 3.0 96.0 1024.2 3.2 NW 4.8 0.0
10:20 3.1 96.0 1024.2 3.2 NW 4.8 0.0
10:25 3.7 96.0 1024.1 1.6 NW 3.2 0.0
10:30 4.1 96.0 1024.1 0.0 NW 3.2 0.0
10:35 4.2 96.0 1024.1 1.6 NNW 3.2 0.0
10:40 4.4 96.0 1024.0 1.6 WNW 4.8 0.0
10:45 4.6 96.0 1024.1 1.6 WNW 4.8 0.0
10:50 4.8 96.0 1024.0 0.0 SW 4.8 0.0
10:55 5.0 96.0 1023.9 1.6 N 4.8 0.0
11:00 5.2 96.0 1023.9 1.6 N 4.8 0.0
11:05 5.5 96.0 1023.8 0.0 N 3.2 0.0
11:10 5.7 96.0 1023.7 0.0 N 3.2 0.0
11:15 5.9 96.0 1023.6 1.6 N 3.2 0.0
11:20 5.9 96.0 1023.6 0.0 N 3.2 0.0
11:25 6.4 96.0 1023.4 3.2 N 4.8 0.0
11:30 6.8 96.0 1023.2 4.8 N 6.4 0.0
11:35 7.2 94.0 1023.2 0.0 N 6.4 0.0
11:40 7.4 93.0 1023.1 0.0 N 4.8 0.0
11:45 7.6 92.0 1023.0 0.0 N 0.0 0.0
11:50 7.8 90.0 1023.0 4.8 N 6.4 0.0
11:55 8.1 90.0 1022.8 0.0 N 6.4 0.0
12:00 8.3 89.0 1022.7 1.6 N 4.8 0.0
12:05 8.7 87.0 1022.6 0.0 NW 4.8 0.0
12:10 9.2 86.0 1022.5 3.2 W 4.8 0.0
12:15 9.7 82.0 1022.4 3.2 WSW 4.8 0.0
12:20 9.7 82.0 1022.4 1.6 WSW 4.8 0.0
12:25 10.3 80.0 1022.3 3.2 WSW 4.8 0.0
12:30 10.7 79.0 1022.1 1.6 WSW 3.2 0.0
12:35 11.0 76.0 1022.1 1.6 WNW 3.2 0.0
12:40 11.4 78.0 1022.0 3.2 W 4.8 0.0
12:45 11.7 72.0 1022.0 9.7 WNW 12.9 0.0
12:50 11.8 73.0 1021.9 3.2 WNW 12.9 0.0
12:55 11.9 73.0 1021.9 1.6 W 11.3 0.0
13:00 11.9 73.0 1021.9 1.6 WNW 11.3 0.0
13:05 12.1 70.0 1021.9 3.2 W 11.3 0.0
13:10 12.2 67.0 1021.8 3.2 NW 14.5 0.0
13:15 12.3 67.0 1021.7 8.0 NW 14.5 0.0
13:20 12.3 67.0 1021.7 11.3 NW 16.1 0.0
13:25 12.8 66.0 1021.5 4.8 NW 6.4 0.0
13:30 13.1 66.0 1021.5 11.3 W 11.3 0.0
13:35 13.1 63.0 1021.4 4.8 WSW 14.5 0.0
13:40 13.2 64.0 1021.3 3.2 WNW 12.9 0.0
13:45 13.2 64.0 1021.5 6.4 W 12.9 0.0
13:50 13.2 63.0 1021.3 8.0 NW 12.9 0.0
13:55 13.2 65.0 1021.2 3.2 W 12.9 0.0
14:00 13.4 65.0 1021.1 3.2 NNW 12.9 0.0
14:05 13.6 65.0 1021.0 6.4 WNW 9.7 0.0
14:10 13.7 65.0 1021.1 6.4 NNW 12.9 0.0
14:15 13.7 65.0 1021.0 6.4 W 12.9 0.0
14:20 13.7 64.0 1021.0 3.2 W 12.9 0.0
14:25 13.7 64.0 1021.1 3.2 WNW 11.3 0.0
14:30 13.7 63.0 1021.1 4.8 NW 9.7 0.0
14:35 13.7 66.0 1021.2 1.6 SW 9.7 0.0
14:40 13.7 65.0 1021.0 1.6 NW 8.0 0.0
14:45 13.7 64.0 1021.0 1.6 SW 8.0 0.0
14:50 13.6 63.0 1021.0 3.2 W 8.0 0.0
14:55 13.4 64.0 1021.1 3.2 N 8.0 0.0
15:00 13.3 64.0 1021.1 1.6 N 6.4 0.0
15:05 13.3 65.0 1021.3 0.0 NW 6.4 0.0
15:10 13.3 65.0 1021.2 3.2 WNW 8.0 0.0
15:15 13.4 65.0 1021.2 4.8 WNW 8.0 0.0
15:20 13.4 65.0 1021.2 1.6 WNW 8.0 0.0
15:25 13.6 64.0 1021.3 3.2 WNW 8.0 0.0
15:30 13.7 64.0 1021.2 3.2 W 6.4 0.0
15:35 13.7 63.0 1021.3 1.6 W 6.4 0.0
15:40 13.8 64.0 1021.3 0.0 W 6.4 0.0
15:45 13.8 64.0 1021.3 6.4 W 6.4 0.0
15:50 13.9 64.0 1021.3 3.2 W 11.3 0.0
15:55 13.9 65.0 1021.4 0.0 WNW 8.0 0.0
16:00 13.8 66.0 1021.3 3.2 N 8.0 0.0
16:05 13.8 66.0 1021.4 1.6 N 4.8 0.0
16:10 13.7 66.0 1021.4 1.6 N 4.8 0.0
16:15 13.6 65.0 1021.5 4.8 N 8.0 0.0
16:20 13.6 65.0 1021.5 4.8 N 8.0 0.0
16:25 13.3 65.0 1021.5 3.2 N 6.4 0.0
16:30 13.2 67.0 1021.6 0.0 N 4.8 0.0
16:35 13.0 68.0 1021.6 0.0 NW 3.2 0.0
16:40 12.8 70.0 1021.6 0.0 NW 1.6 0.0
16:45 12.6 71.0 1021.8 0.0 NW 0.0 0.0
16:50 12.2 72.0 1021.9 0.0 NW 1.6 0.0
16:55 11.9 74.0 1022.0 0.0 NW 1.6 0.0
17:00 11.6 74.0 1022.0 0.0 NW 0.0 0.0
17:05 11.2 75.0 1022.1 0.0 N 0.0 0.0
17:10 10.8 76.0 1022.2 0.0 N 0.0 0.0
17:15 10.4 77.0 1022.3 0.0 N 0.0 0.0
17:20 0.0
17:25 9.8 78.0 1022.5 0.0 N 0.0 0.0
17:30 9.5 79.0 1022.6 0.0 N 0.0 0.0
17:35 9.2 80.0 1022.6 0.0 N 0.0 0.0
17:40 8.8 80.0 1022.6 0.0 N 0.0 0.0
17:45 8.5 81.0 1022.7 0.0 N 0.0 0.0
17:50 8.2 81.0 1022.8 0.0 N 0.0 0.0
17:55 7.9 82.0 1022.8 0.0 N 0.0 0.0
18:00 7.7 83.0 1022.8 0.0 N 0.0 0.0
18:05 7.4 83.0 1022.7 0.0 NW 0.0 0.0
18:10 7.2 83.0 1022.7 0.0 N 0.0 0.0
18:15 6.9 83.0 1022.8 0.0 N 0.0 0.0
18:20 0.0
18:25 6.4 84.0 1022.8 0.0 N 1.6 0.0
18:30 6.1 85.0 1022.8 0.0 NW 1.6 0.0
18:35 5.8 85.0 1022.8 0.0 NW 3.2 0.0
18:40 5.6 86.0 1022.8 1.6 NW 3.2 0.0
18:45 5.4 86.0 1022.9 0.0 NW 1.6 0.0
18:50 5.2 86.0 1022.9 0.0 NW 1.6 0.0
18:55 5.0 87.0 1023.0 0.0 NW 1.6 0.0
19:00 4.8 87.0 1023.1 0.0 NW 1.6 0.0
19:05 4.6 87.0 1023.3 0.0 NW 0.0 0.0
19:10 4.4 88.0 1023.3 0.0 NW 0.0 0.0
19:15 4.3 88.0 1023.4 0.0 NW 0.0 0.0
19:15 4.3 88.0 1023.3 0.0 NW 0.0 0.0
19:25 3.9 88.0 1023.3 0.0 NW 0.0 0.0
19:30 3.8 89.0 1023.3 0.0 NW 0.0 0.0
19:35 3.7 89.0 1023.3 0.0 NW 0.0 0.0
19:40 3.6 89.0 1023.4 0.0 NW 0.0 0.0
19:45 3.4 89.0 1023.6 0.0 NW 0.0 0.0
Màxima 13.9 96.0 1024.2 11.3 W 16.1 0.2
Mínima -2.7 63.0 1021.0
Total 0.2